Curtin, Australia

5:58 AM AWST on December 12, 2017 (GMT +0800)
Curtin

Weather History for YCIN - October, 2013

Change the Weather History Date:

Sunday, October 6, 2013

  Actual Average Record
Temperature  
Mean Temperature 86 °F -  
Max Temperature 104 °F - - ()
Min Temperature 69 °F - - ()
Cooling Degree Days 22    
Growing Degree Days 36 (Base 50)    
Moisture  
Dew Point 63 °F    
Average Humidity 52    
Maximum Humidity 83    
Minimum Humidity 12    
Precipitation  
Precipitation 0.00 in - - ()
Sea Level Pressure  
Sea Level Pressure 29.79 in    
Wind  
Wind Speed 5 mph ()    
Max Wind Speed 14 mph    
Max Gust Speed -    
T = Trace of Precipitation, MM = Missing Value Source: Averaged Metar Reports

Daily Weather History Graph

Daily Weather History Graph

Search for Another Location

Airport or City:

Trip Planner

Search our weather history database for the weather conditions in past years. The results will help you decide how hot, cold, wet, or windy it might be!

Date:

Astronomy

Oct. 06, 2013 Rise Set
Actual Time 5:23 AM AWST 5:42 PM AWST
Civil Twilight 5:01 AM AWST 6:04 PM AWST
Nautical Twilight 4:35 AM AWST 6:30 PM AWST
Astronomical Twilight 4:10 AM AWST 6:55 PM AWST
Moon 5:59 AM AWST (10/6) 6:55 PM AWST (10/6)
Length of Visible Light 13h 03m
Length of Day
12h 19m
New Moon, 2% of the Moon is Illuminated
Oct 6
New Moon
Oct 12
First Quarter
Oct 19
Full
Oct 27
Last Quarter
Nov 3
New

Hourly Weather History & Observations

Time (AWST) Temp. Heat Index Dew Point Humidity Pressure Visibility Wind Dir Wind Speed Gust Speed Precip Events Conditions
12:00 AM 76 °F - 63 °F 56% 29.79 in - NW 5.8 mph - -  
12:00 AM 75.2 °F - 62.6 °F 65% 29.80 in - NW 5.8 mph - N/A   Unknown
1:00 AM 73.4 °F - 64.4 °F 73% 29.77 in - NW 4.6 mph - N/A   Unknown
2:00 AM 71.6 °F - 66.2 °F 83% 29.77 in - NNW 5.8 mph - N/A   Unknown
3:00 AM 72 °F - 66 °F 77% 29.77 in - NE 4.6 mph - -  
3:00 AM 71.6 °F - 66.2 °F 83% 29.77 in - NE 4.6 mph - N/A   Unknown
4:00 AM 73.4 °F - 66.2 °F 78% 29.80 in - NNE 4.6 mph - N/A   Unknown
5:00 AM 73.4 °F - 68.0 °F 83% 29.83 in - NNW 4.6 mph - N/A   Unknown
6:00 AM 72 °F - 66 °F 76% 29.84 in - SSE 1.2 mph - -  
6:00 AM 73.4 °F - 66.2 °F 78% 29.83 in - SSE 1.2 mph - N/A   Unknown
7:00 AM 78.8 °F - 68.0 °F 69% 29.89 in - NE 4.6 mph - N/A   Unknown
8:00 AM 84.2 °F 86.6 °F 66.2 °F 55% 29.89 in - North 4.6 mph - N/A   Unknown
9:00 AM 88 °F - 62 °F 32% 29.87 in - NNW 4.6 mph - -  
9:00 AM 87.8 °F 88.5 °F 62.6 °F 43% 29.86 in - NNW 4.6 mph - N/A   Unknown
10:00 AM 93.2 °F 91.9 °F 57.2 °F 30% 29.86 in - WNW 5.8 mph - N/A   Unknown
11:00 AM 95.0 °F 92.7 °F 53.6 °F 25% 29.83 in - WSW 6.9 mph - N/A   Unknown
12:00 PM 99 °F - 51 °F 12% 29.78 in - WNW 3.5 mph - -  
12:00 PM 98.6 °F - 51.8 °F 21% 29.77 in - WNW 3.5 mph - N/A   Unknown
1:00 PM 102.2 °F 100.4 °F 53.6 °F 20% 29.74 in - NW 6.9 mph - N/A   Scattered Clouds
2:00 PM 102.2 °F 100.4 °F 53.6 °F 20% 29.71 in - West 6.9 mph - N/A   Mostly Cloudy
3:00 PM 103 °F - 56 °F 13% 29.70 in - WNW 13.8 mph - -  
3:00 PM 102.2 °F 101.4 °F 57.2 °F 22% 29.71 in - WNW 13.8 mph - N/A   Mostly Cloudy
4:00 PM 98.6 °F - 51.8 °F 21% 29.71 in - NNW 11.5 mph - N/A   Mostly Cloudy
5:00 PM 96.8 °F 94.4 °F 53.6 °F 23% 29.71 in - NW 10.4 mph - N/A   Unknown
6:00 PM 88 °F - 66 °F 38% 29.73 in - NW 8.1 mph - -  
6:00 PM 87.8 °F 90.4 °F 66.2 °F 49% 29.74 in - NW 8.1 mph - N/A   Unknown
7:00 PM 84.2 °F 89.6 °F 71.6 °F 66% 29.77 in - NW 10.4 mph - N/A   Unknown
8:00 PM 82.4 °F 87.2 °F 71.6 °F 70% 29.77 in - NW 8.1 mph - N/A   Unknown
9:00 PM 82 °F - 72 °F 66% 29.79 in - WNW 5.8 mph - -  
9:00 PM 82.4 °F 87.2 °F 71.6 °F 70% 29.80 in - WNW 5.8 mph - N/A   Unknown
10:00 PM 78.8 °F - 71.6 °F 78% 29.80 in - WNW 4.6 mph - N/A   Unknown
11:00 PM 78.8 °F - 71.6 °F 78% 29.77 in - West 6.9 mph - N/A   Unknown